Time,TemperatureF,DewpointF,PressureIn,WindDirection,WindDirectionDegrees,WindSpeedMPH,WindSpeedGustMPH,Humidity,HourlyPrecipIn,Conditions,Clouds,dailyrainin,SoftwareType,DateUTC
2014-03-06 00:02:00,52.3,48.9,29.99,ENE,68,0.0,0.0,88,0.00,RA,,0.00,WeatherDisplay:10.37,2014-03-06 06:02:00,
2014-03-06 00:07:00,52.0,48.8,29.98,ENE,68,0.0,0.0,89,0.00,RA,,0.00,WeatherDisplay:10.37,2014-03-06 06:07:00,
2014-03-06 00:12:00,52.0,48.8,29.99,ENE,68,2.3,2.3,89,0.02,RA,,0.02,WeatherDisplay:10.37,2014-03-06 06:12:00,
2014-03-06 00:17:00,51.8,48.7,29.99,ENE,68,0.0,0.0,89,0.02,RA,,0.02,WeatherDisplay:10.37,2014-03-06 06:17:00,
2014-03-06 00:22:00,51.8,48.7,29.99,ENE,68,0.0,0.0,89,0.02,CLR,,0.02,WeatherDisplay:10.37,2014-03-06 06:22:00,
2014-03-06 00:27:00,51.8,48.7,30.00,ENE,68,0.0,0.0,89,0.00,CLR,,0.02,WeatherDisplay:10.37,2014-03-06 06:27:00,
2014-03-06 00:32:00,51.8,48.7,29.99,ENE,68,0.0,0.0,89,0.00,CLR,,0.02,WeatherDisplay:10.37,2014-03-06 06:32:00,
2014-03-06 00:37:00,51.6,48.5,29.99,ENE,68,3.5,3.5,89,0.02,RA,,0.04,WeatherDisplay:10.37,2014-03-06 06:37:00,
2014-03-06 00:42:00,51.6,48.5,29.98,ENE,68,5.8,9.7,89,0.04,RA,,0.06,WeatherDisplay:10.37,2014-03-06 06:42:00,
2014-03-06 00:47:00,51.6,48.5,29.97,ENE,68,8.1,15.4,89,0.06,RA,,0.08,WeatherDisplay:10.37,2014-03-06 06:47:00,
2014-03-06 00:52:00,51.4,48.6,29.97,ENE,68,4.6,8.0,90,0.06,RA,,0.10,WeatherDisplay:10.37,2014-03-06 06:52:00,
2014-03-06 00:57:00,51.3,48.4,29.96,ENE,68,11.5,19.4,90,0.06,RA,,0.10,WeatherDisplay:10.37,2014-03-06 06:57:00,
2014-03-06 01:02:00,51.3,48.4,29.96,ENE,68,0.0,0.0,90,0.12,RA,,0.12,WeatherDisplay:10.37,2014-03-06 07:02:00,
2014-03-06 01:07:00,51.1,48.2,29.96,East,90,5.8,12.3,90,0.12,RA,,0.12,WeatherDisplay:10.37,2014-03-06 07:07:00,
2014-03-06 01:12:00,50.9,48.1,29.96,ENE,68,0.0,0.0,90,0.12,RA,,0.14,WeatherDisplay:10.37,2014-03-06 07:12:00,
2014-03-06 01:17:00,50.9,48.1,29.96,ENE,68,0.0,0.0,90,0.14,RA,,0.16,WeatherDisplay:10.37,2014-03-06 07:17:00,
2014-03-06 01:22:00,50.9,48.1,29.95,ENE,68,9.2,18.3,90,0.14,RA,,0.16,WeatherDisplay:10.37,2014-03-06 07:22:00,
2014-03-06 01:27:00,50.7,47.9,29.95,East,90,8.1,14.5,90,0.16,RA,,0.18,WeatherDisplay:10.37,2014-03-06 07:27:00,
2014-03-06 01:32:00,50.7,48.2,29.95,East,90,0.0,0.0,91,0.16,RA,,0.18,WeatherDisplay:10.37,2014-03-06 07:32:00,
2014-03-06 01:37:00,50.7,48.2,29.95,ESE,112,0.0,0.0,91,0.14,CLR,,0.18,WeatherDisplay:10.37,2014-03-06 07:37:00,
2014-03-06 01:42:00,50.7,48.2,29.95,ENE,68,0.0,0.0,91,0.14,RA,,0.20,WeatherDisplay:10.37,2014-03-06 07:42:00,
2014-03-06 01:47:00,50.7,48.2,29.95,ENE,68,0.0,0.0,91,0.12,RA,,0.20,WeatherDisplay:10.37,2014-03-06 07:47:00,
2014-03-06 01:52:00,50.7,47.9,29.95,ENE,68,0.0,0.0,90,0.10,,,0.20,WeatherDisplay:10.37,2014-03-06 07:52:00,
2014-03-06 01:57:00,50.7,47.9,29.97,ENE,68,0.0,0.0,90,0.12,RA,,0.22,WeatherDisplay:10.37,2014-03-06 07:57:00,
2014-03-06 02:02:00,50.7,48.2,29.97,ENE,68,0.0,0.0,91,0.12,RA,,0.24,WeatherDisplay:10.37,2014-03-06 08:02:00,
2014-03-06 02:07:00,50.7,48.2,29.97,ENE,68,0.0,0.0,91,0.12,RA,,0.24,WeatherDisplay:10.37,2014-03-06 08:07:00,
2014-03-06 02:12:00,50.7,47.9,29.97,ENE,68,0.0,0.0,90,0.12,RA,,0.26,WeatherDisplay:10.37,2014-03-06 08:12:00,
2014-03-06 02:17:00,50.7,47.9,29.95,ENE,68,0.0,0.0,90,0.10,RA,,0.26,WeatherDisplay:10.37,2014-03-06 08:17:00,
2014-03-06 02:22:00,50.5,48.0,29.93,ESE,112,9.2,9.2,91,0.10,CLR,,0.26,WeatherDisplay:10.37,2014-03-06 08:22:00,
2014-03-06 02:25:00,50.5,48.0,29.91,ESE,112,9.2,0.0,91,0.08,CLR,,0.26,WeatherDisplay:10.37,2014-03-06 08:25:00,
2014-03-06 02:30:00,50.5,48.0,29.92,SSE,158,2.3,3.5,91,0.08,CLR,,0.26,WeatherDisplay:10.37,2014-03-06 08:30:00,
2014-03-06 02:35:00,50.5,48.0,29.93,SE,135,0.0,0.0,91,0.10,RA,,0.28,WeatherDisplay:10.37,2014-03-06 08:35:00,
2014-03-06 02:40:00,50.5,48.0,29.94,ENE,68,0.0,0.0,91,0.10,RA,,0.28,WeatherDisplay:10.37,2014-03-06 08:40:00,
2014-03-06 02:45:00,50.5,48.0,29.94,ENE,68,0.0,0.0,91,0.10,RA,,0.31,WeatherDisplay:10.37,2014-03-06 08:45:00,
2014-03-06 02:50:00,50.5,48.0,29.94,SE,135,4.9,8.1,91,0.10,RA,,0.31,WeatherDisplay:10.37,2014-03-06 08:50:00,
2014-03-06 02:55:00,50.5,48.0,29.91,SE,135,3.5,3.8,91,0.10,CLR,,0.31,WeatherDisplay:10.37,2014-03-06 08:55:00,
2014-03-06 03:00:00,50.5,48.0,29.91,SE,135,9.2,18.4,91,0.08,CLR,,0.31,WeatherDisplay:10.37,2014-03-06 09:00:00,
2014-03-06 03:05:00,50.5,48.0,29.90,SE,135,12.7,24.5,91,0.06,CLR,,0.31,WeatherDisplay:10.37,2014-03-06 09:05:00,
2014-03-06 03:10:00,50.5,48.0,29.90,ESE,112,5.8,7.9,91,0.04,CLR,,0.31,WeatherDisplay:10.37,2014-03-06 09:10:00,
2014-03-06 03:15:00,50.5,48.0,29.90,SSE,158,10.4,18.3,91,0.04,CLR,,0.31,WeatherDisplay:10.37,2014-03-06 09:15:00,
2014-03-06 03:20:00,50.4,47.8,29.90,SE,135,11.5,13.6,91,0.04,CLR,,0.31,WeatherDisplay:10.37,2014-03-06 09:20:00,
2014-03-06 03:25:00,50.4,47.8,29.90,East,90,5.8,10.5,91,0.04,CLR,,0.31,WeatherDisplay:10.37,2014-03-06 09:25:00,
2014-03-06 03:30:00,50.5,48.3,29.90,East,90,0.0,1.1,92,0.04,CLR,,0.31,WeatherDisplay:10.37,2014-03-06 09:30:00,
2014-03-06 03:35:00,50.4,47.8,29.91,East,90,3.5,4.0,91,0.02,CLR,,0.31,WeatherDisplay:10.37,2014-03-06 09:35:00,
2014-03-06 03:40:00,50.4,47.8,29.91,East,90,0.0,0.0,91,0.02,CLR,,0.31,WeatherDisplay:10.37,2014-03-06 09:40:00,
2014-03-06 03:45:00,50.5,48.3,29.91,ENE,68,0.0,0.0,92,0.00,CLR,,0.31,WeatherDisplay:10.37,2014-03-06 09:45:00,
2014-03-06 03:50:00,50.5,48.3,29.91,ENE,68,0.0,0.0,92,0.00,CLR,,0.31,WeatherDisplay:10.37,2014-03-06 09:50:00,
2014-03-06 03:55:00,50.5,48.3,29.91,ENE,68,0.0,0.0,92,0.00,CLR,,0.31,WeatherDisplay:10.37,2014-03-06 09:55:00,
2014-03-06 04:00:00,50.5,48.3,29.91,ENE,68,0.0,1.8,92,0.00,CLR,,0.31,WeatherDisplay:10.37,2014-03-06 10:00:00,
2014-03-06 04:05:00,50.5,48.3,29.91,ENE,68,0.0,0.0,92,0.00,CLR,,0.31,WeatherDisplay:10.37,2014-03-06 10:05:00,
2014-03-06 04:10:00,50.5,48.3,29.92,ENE,68,0.0,0.0,92,0.00,CLR,,0.31,WeatherDisplay:10.37,2014-03-06 10:10:00,
2014-03-06 04:15:00,50.5,48.3,29.93,ENE,68,0.0,0.0,92,0.00,CLR,,0.31,WeatherDisplay:10.37,2014-03-06 10:15:00,
2014-03-06 04:20:00,50.5,48.3,29.93,ENE,68,0.0,0.0,92,0.00,CLR,,0.31,WeatherDisplay:10.37,2014-03-06 10:20:00,
2014-03-06 04:25:00,50.5,48.3,29.93,ENE,68,0.0,0.0,92,0.00,CLR,,0.31,WeatherDisplay:10.37,2014-03-06 10:25:00,
2014-03-06 04:31:00,50.5,48.3,29.93,ENE,68,0.0,0.0,92,0.00,CLR,,0.31,WeatherDisplay:10.37,2014-03-06 10:31:00,
2014-03-06 04:36:00,50.5,48.3,29.93,ENE,68,0.0,0.0,92,0.00,CLR,,0.31,WeatherDisplay:10.37,2014-03-06 10:36:00,
2014-03-06 04:41:00,50.5,48.3,29.93,ENE,68,0.0,0.0,92,0.00,CLR,,0.31,WeatherDisplay:10.37,2014-03-06 10:41:00,
2014-03-06 04:46:00,50.7,48.5,29.93,ENE,68,0.0,0.0,92,0.00,CLR,,0.31,WeatherDisplay:10.37,2014-03-06 10:46:00,
2014-03-06 04:51:00,50.7,48.5,29.91,ENE,68,0.0,0.0,92,0.02,RA,,0.33,WeatherDisplay:10.37,2014-03-06 10:51:00,
2014-03-06 04:56:00,50.7,48.5,29.92,ESE,112,3.5,6.1,92,0.02,RA,,0.33,WeatherDisplay:10.37,2014-03-06 10:56:00,
2014-03-06 05:01:00,50.7,48.5,29.91,SE,135,0.0,0.0,92,0.02,,,0.33,WeatherDisplay:10.37,2014-03-06 11:01:00,
2014-03-06 05:06:00,50.7,48.5,29.91,ESE,112,0.0,0.0,92,0.02,CLR,,0.33,WeatherDisplay:10.37,2014-03-06 11:06:00,
2014-03-06 05:11:00,50.5,48.3,29.91,ESE,112,0.0,0.0,92,0.02,CLR,,0.33,WeatherDisplay:10.37,2014-03-06 11:11:00,
2014-03-06 05:16:00,50.5,48.3,29.91,SE,135,4.6,8.8,92,0.02,CLR,,0.33,WeatherDisplay:10.37,2014-03-06 11:16:00,
2014-03-06 05:21:00,50.5,48.3,29.89,East,90,8.1,14.0,92,0.04,RA,,0.35,WeatherDisplay:10.37,2014-03-06 11:21:00,
2014-03-06 05:26:00,50.5,48.3,29.88,SE,135,13.8,0.0,92,0.04,RA,,0.35,WeatherDisplay:10.37,2014-03-06 11:26:00,
2014-03-06 05:31:00,50.5,48.3,29.86,East,90,10.2,17.5,92,0.04,CLR,,0.35,WeatherDisplay:10.37,2014-03-06 11:31:00,
2014-03-06 05:36:00,50.5,48.3,29.86,East,90,8.1,16.4,92,0.04,CLR,,0.35,WeatherDisplay:10.37,2014-03-06 11:36:00,
2014-03-06 05:41:00,50.5,48.3,29.86,East,90,6.9,13.1,92,0.04,CLR,,0.35,WeatherDisplay:10.37,2014-03-06 11:41:00,
2014-03-06 05:46:00,50.4,48.1,29.88,SE,135,3.5,6.1,92,0.04,CLR,,0.35,WeatherDisplay:10.37,2014-03-06 11:46:00,
2014-03-06 05:51:00,50.5,48.3,29.88,SE,135,12.7,23.1,92,0.02,CLR,,0.35,WeatherDisplay:10.37,2014-03-06 11:51:00,
2014-03-06 05:56:00,50.5,48.3,29.88,East,90,10.2,18.4,92,0.02,CLR,,0.35,WeatherDisplay:10.37,2014-03-06 11:56:00,
2014-03-06 06:01:00,50.5,48.3,29.88,SSE,158,6.9,20.1,92,0.02,CLR,,0.35,WeatherDisplay:10.37,2014-03-06 12:01:00,
2014-03-06 06:06:00,50.5,48.3,29.92,NNW,338,0.0,0.0,92,0.02,CLR,,0.35,WeatherDisplay:10.37,2014-03-06 12:06:00,
2014-03-06 06:11:00,50.7,48.5,29.92,NNW,338,2.3,0.0,92,0.02,CLR,,0.35,WeatherDisplay:10.37,2014-03-06 12:11:00,
2014-03-06 06:16:00,50.7,48.5,29.92,NW,315,0.0,0.0,92,0.02,CLR,,0.35,WeatherDisplay:10.37,2014-03-06 12:16:00,
2014-03-06 06:21:00,50.7,48.5,29.93,WNW,292,0.0,0.0,92,0.00,CLR,,0.35,WeatherDisplay:10.37,2014-03-06 12:21:00,
2014-03-06 06:26:00,50.7,48.5,29.92,WNW,292,0.0,0.0,92,0.00,CLR,,0.35,WeatherDisplay:10.37,2014-03-06 12:26:00,
2014-03-06 06:31:00,50.7,48.5,29.93,WNW,292,0.0,0.0,92,0.00,CLR,,0.35,WeatherDisplay:10.37,2014-03-06 12:31:00,
2014-03-06 06:36:00,50.7,48.5,29.92,WNW,292,0.0,0.0,92,0.00,CLR,,0.35,WeatherDisplay:10.37,2014-03-06 12:36:00,
2014-03-06 06:41:00,50.7,48.5,29.92,WNW,292,0.0,0.0,92,0.00,CLR,,0.35,WeatherDisplay:10.37,2014-03-06 12:41:00,
2014-03-06 06:46:00,50.7,48.5,29.91,WNW,292,0.0,0.0,92,0.00,CLR,,0.35,WeatherDisplay:10.37,2014-03-06 12:46:00,
2014-03-06 06:51:00,50.7,48.5,29.91,WNW,292,0.0,0.0,92,0.00,CLR,,0.35,WeatherDisplay:10.37,2014-03-06 12:51:00,
2014-03-06 06:56:00,50.7,48.5,29.91,WNW,292,0.0,0.0,92,0.00,CLR,,0.35,WeatherDisplay:10.37,2014-03-06 12:56:00,
2014-03-06 07:01:00,50.7,48.5,29.91,WNW,292,0.0,0.0,92,0.00,CLR,,0.35,WeatherDisplay:10.37,2014-03-06 13:01:00,
2014-03-06 07:06:00,50.7,48.5,29.92,WNW,292,0.0,0.0,92,0.00,CLR,,0.35,WeatherDisplay:10.37,2014-03-06 13:06:00,
2014-03-06 07:11:00,50.7,48.5,29.93,WNW,292,0.0,0.0,92,0.00,CLR,,0.35,WeatherDisplay:10.37,2014-03-06 13:11:00,
2014-03-06 07:16:00,50.7,48.5,29.93,WNW,292,0.0,0.0,92,0.00,CLR,,0.35,WeatherDisplay:10.37,2014-03-06 13:16:00,
2014-03-06 07:21:00,50.7,48.5,29.94,NW,315,0.0,0.0,92,0.00,CLR,,0.35,WeatherDisplay:10.37,2014-03-06 13:21:00,
2014-03-06 07:26:00,50.9,48.7,29.94,NW,315,0.0,0.0,92,0.00,CLR,,0.35,WeatherDisplay:10.37,2014-03-06 13:26:00,
2014-03-06 07:31:00,50.9,48.7,29.94,NW,315,0.0,0.0,92,0.00,CLR,,0.35,WeatherDisplay:10.37,2014-03-06 13:31:00,
2014-03-06 07:36:00,50.9,48.7,29.93,NW,315,0.0,0.0,92,0.00,CLR,,0.35,WeatherDisplay:10.37,2014-03-06 13:36:00,
2014-03-06 07:41:00,51.1,48.8,29.93,NW,315,0.0,0.0,92,0.00,CLR,,0.35,WeatherDisplay:10.37,2014-03-06 13:41:00,
2014-03-06 07:46:00,51.1,48.8,29.93,NW,315,0.0,0.0,92,0.00,CLR,,0.35,WeatherDisplay:10.37,2014-03-06 13:46:00,
2014-03-06 07:51:00,51.3,49.0,29.93,NW,315,0.0,0.0,92,0.00,CLR,,0.35,WeatherDisplay:10.37,2014-03-06 13:51:00,
2014-03-06 07:56:00,51.4,49.2,29.93,NW,315,0.0,0.0,92,0.00,CLR,,0.35,WeatherDisplay:10.37,2014-03-06 13:56:00,
2014-03-06 08:01:00,51.6,49.4,29.93,NE,45,0.0,0.8,92,0.00,CLR,,0.35,WeatherDisplay:10.37,2014-03-06 14:01:00,
2014-03-06 08:06:00,51.6,49.4,29.93,NE,45,0.0,0.0,92,0.00,CLR,,0.35,WeatherDisplay:10.37,2014-03-06 14:06:00,
2014-03-06 08:11:00,51.8,49.5,29.93,NE,45,0.0,0.0,92,0.00,CLR,,0.35,WeatherDisplay:10.37,2014-03-06 14:11:00,
2014-03-06 08:16:00,52.2,49.9,29.93,NE,45,0.0,0.0,92,0.00,CLR,,0.35,WeatherDisplay:10.37,2014-03-06 14:16:00,
2014-03-06 08:21:00,52.3,50.1,29.94,NE,45,0.0,0.0,92,0.00,CLR,,0.35,WeatherDisplay:10.37,2014-03-06 14:21:00,
2014-03-06 08:26:00,52.3,50.1,29.94,NE,45,0.0,0.0,92,0.00,CLR,,0.35,WeatherDisplay:10.37,2014-03-06 14:26:00,
2014-03-06 08:31:00,52.3,50.1,29.94,NE,45,0.0,0.0,92,0.00,CLR,,0.35,WeatherDisplay:10.37,2014-03-06 14:31:00,
2014-03-06 08:36:00,52.3,50.1,29.94,ENE,68,5.8,8.8,92,0.00,CLR,,0.35,WeatherDisplay:10.37,2014-03-06 14:36:00,
2014-03-06 08:41:00,52.3,50.1,29.94,NE,45,0.0,0.0,92,0.00,CLR,,0.35,WeatherDisplay:10.37,2014-03-06 14:41:00,
2014-03-06 08:46:00,52.3,50.1,29.95,North,0,0.0,0.0,92,0.00,CLR,,0.35,WeatherDisplay:10.37,2014-03-06 14:46:00,
2014-03-06 08:51:00,52.5,50.3,29.95,North,0,0.0,0.0,92,0.00,CLR,,0.35,WeatherDisplay:10.37,2014-03-06 14:51:00,
2014-03-06 08:56:00,52.5,50.3,29.95,WSW,248,0.0,0.0,92,0.00,CLR,,0.35,WeatherDisplay:10.37,2014-03-06 14:56:00,
2014-03-06 09:01:00,52.5,50.3,29.95,WSW,248,0.0,0.0,92,0.00,CLR,,0.35,WeatherDisplay:10.37,2014-03-06 15:01:00,
2014-03-06 09:06:00,52.7,50.4,29.96,WSW,248,0.0,0.0,92,0.00,CLR,,0.35,WeatherDisplay:10.37,2014-03-06 15:06:00,
2014-03-06 09:11:00,52.7,50.4,29.95,West,270,0.0,0.0,92,0.00,CLR,,0.35,WeatherDisplay:10.37,2014-03-06 15:11:00,
2014-03-06 09:16:00,52.7,50.4,29.95,West,270,0.0,0.0,92,0.00,CLR,,0.35,WeatherDisplay:10.37,2014-03-06 15:16:00,
2014-03-06 09:21:00,52.7,50.4,29.95,North,0,0.0,0.0,92,0.00,CLR,,0.35,WeatherDisplay:10.37,2014-03-06 15:21:00,
2014-03-06 09:26:00,52.9,50.6,29.96,NE,45,0.0,0.1,92,0.00,CLR,,0.35,WeatherDisplay:10.37,2014-03-06 15:26:00,
2014-03-06 09:31:00,52.9,50.6,29.96,North,0,0.0,0.0,92,0.00,CLR,,0.35,WeatherDisplay:10.37,2014-03-06 15:31:00,
2014-03-06 09:36:00,52.9,50.6,29.96,NE,45,0.0,0.0,92,0.00,CLR,,0.35,WeatherDisplay:10.37,2014-03-06 15:36:00,
2014-03-06 09:41:00,52.9,50.6,29.95,ENE,68,3.5,6.3,92,0.00,CLR,,0.35,WeatherDisplay:10.37,2014-03-06 15:41:00,
2014-03-06 09:46:00,53.1,50.8,29.95,ENE,68,0.0,0.0,92,0.00,CLR,,0.35,WeatherDisplay:10.37,2014-03-06 15:46:00,
2014-03-06 09:51:00,53.2,51.0,29.95,ENE,68,0.0,0.0,92,0.00,CLR,,0.35,WeatherDisplay:10.37,2014-03-06 15:51:00,
2014-03-06 09:56:00,53.2,51.0,29.95,NW,315,0.0,0.0,92,0.00,CLR,,0.35,WeatherDisplay:10.37,2014-03-06 15:56:00,
2014-03-06 10:01:00,53.2,51.0,29.95,NW,315,0.0,0.0,92,0.00,CLR,,0.35,WeatherDisplay:10.37,2014-03-06 16:01:00,
2014-03-06 10:06:00,53.2,51.0,29.95,NW,315,0.0,0.0,92,0.00,CLR,,0.35,WeatherDisplay:10.37,2014-03-06 16:06:00,
2014-03-06 10:11:00,53.2,51.0,29.94,NNE,22,0.0,0.0,92,0.00,CLR,,0.35,WeatherDisplay:10.37,2014-03-06 16:11:00,
2014-03-06 10:16:00,53.2,51.0,29.94,ENE,68,0.0,0.0,92,0.00,CLR,,0.35,WeatherDisplay:10.37,2014-03-06 16:16:00,
2014-03-06 10:21:00,53.2,51.0,29.94,NE,45,0.0,0.0,92,0.00,CLR,,0.35,WeatherDisplay:10.37,2014-03-06 16:21:00,
2014-03-06 10:26:00,53.1,50.8,29.94,ENE,68,0.0,0.0,92,0.00,CLR,,0.35,WeatherDisplay:10.37,2014-03-06 16:26:00,
2014-03-06 10:31:00,53.1,50.8,29.94,NE,45,0.0,0.0,92,0.00,CLR,,0.35,WeatherDisplay:10.37,2014-03-06 16:31:00,
2014-03-06 10:36:00,53.2,51.0,29.93,NE,45,0.0,0.0,92,0.00,CLR,,0.35,WeatherDisplay:10.37,2014-03-06 16:36:00,
2014-03-06 10:41:00,53.2,51.0,29.93,ENE,68,1.2,1.2,92,0.00,CLR,,0.35,WeatherDisplay:10.37,2014-03-06 16:41:00,
2014-03-06 10:46:00,53.2,51.0,29.93,ENE,68,0.0,0.0,92,0.00,CLR,,0.35,WeatherDisplay:10.37,2014-03-06 16:46:00,
2014-03-06 10:51:00,53.4,51.2,29.93,ENE,68,0.0,0.0,92,0.00,CLR,,0.35,WeatherDisplay:10.37,2014-03-06 16:51:00,
2014-03-06 10:56:00,53.6,51.3,29.93,ENE,68,0.0,0.0,92,0.00,CLR,,0.35,WeatherDisplay:10.37,2014-03-06 16:56:00,
2014-03-06 11:01:00,53.8,51.5,29.93,ENE,68,0.0,0.0,92,0.00,CLR,,0.35,WeatherDisplay:10.37,2014-03-06 17:01:00,
2014-03-06 11:06:00,54.0,51.7,29.93,ENE,68,0.0,0.0,92,0.00,CLR,,0.35,WeatherDisplay:10.37,2014-03-06 17:06:00,
2014-03-06 11:11:00,54.1,51.9,29.92,ENE,68,0.0,0.0,92,0.00,CLR,,0.35,WeatherDisplay:10.37,2014-03-06 17:11:00,
2014-03-06 11:16:00,54.3,51.7,29.92,ENE,68,0.0,0.6,91,0.00,CLR,,0.35,WeatherDisplay:10.37,2014-03-06 17:16:00,
2014-03-06 11:21:00,54.5,51.9,29.92,ENE,68,0.0,0.0,91,0.00,CLR,,0.35,WeatherDisplay:10.37,2014-03-06 17:21:00,
2014-03-06 11:26:00,54.7,52.1,29.92,ENE,68,6.2,8.8,91,0.00,CLR,,0.35,WeatherDisplay:10.37,2014-03-06 17:26:00,
2014-03-06 11:31:00,54.7,52.1,29.91,ENE,68,4.0,6.2,91,0.00,CLR,,0.35,WeatherDisplay:10.37,2014-03-06 17:31:00,
2014-03-06 11:36:00,55.0,52.5,29.91,ENE,68,9.2,17.5,91,0.00,CLR,,0.35,WeatherDisplay:10.37,2014-03-06 17:36:00,
2014-03-06 11:41:00,55.0,52.5,29.91,ENE,68,11.5,19.0,91,0.00,CLR,,0.35,WeatherDisplay:10.37,2014-03-06 17:41:00,
2014-03-06 11:46:00,54.9,52.0,29.92,ENE,68,10.4,18.8,90,0.00,CLR,,0.35,WeatherDisplay:10.37,2014-03-06 17:46:00,
2014-03-06 11:51:00,55.0,52.2,29.91,ENE,68,8.1,14.9,90,0.00,CLR,,0.35,WeatherDisplay:10.37,2014-03-06 17:51:00,
2014-03-06 11:56:00,55.0,52.2,29.91,ENE,68,8.4,10.5,90,0.00,CLR,,0.35,WeatherDisplay:10.37,2014-03-06 17:56:00,
2014-03-06 12:01:00,55.2,52.3,29.91,ENE,68,8.1,13.8,90,0.00,CLR,,0.35,WeatherDisplay:10.37,2014-03-06 18:01:00,
2014-03-06 12:06:00,55.2,52.3,29.91,East,90,5.8,10.5,90,0.00,CLR,,0.35,WeatherDisplay:10.37,2014-03-06 18:06:00,
2014-03-06 12:11:00,55.2,52.3,29.91,ENE,68,8.1,16.6,90,0.00,CLR,,0.35,WeatherDisplay:10.37,2014-03-06 18:11:00,
2014-03-06 12:16:00,55.0,52.2,29.91,ENE,68,6.2,12.2,90,0.00,CLR,,0.35,WeatherDisplay:10.37,2014-03-06 18:16:00,
2014-03-06 12:21:00,54.9,52.0,29.91,ENE,68,0.0,0.0,90,0.00,CLR,,0.35,WeatherDisplay:10.37,2014-03-06 18:21:00,
2014-03-06 12:26:00,55.0,52.2,29.90,NE,45,2.3,2.3,90,0.00,CLR,,0.35,WeatherDisplay:10.37,2014-03-06 18:26:00,
2014-03-06 12:31:00,54.9,52.0,29.91,ENE,68,2.3,2.3,90,0.00,CLR,,0.35,WeatherDisplay:10.37,2014-03-06 18:31:00,
2014-03-06 12:36:00,54.9,52.0,29.91,NE,45,0.0,0.0,90,0.00,CLR,,0.35,WeatherDisplay:10.37,2014-03-06 18:36:00,
2014-03-06 12:41:00,54.7,51.8,29.90,ENE,68,4.6,8.5,90,0.00,CLR,,0.35,WeatherDisplay:10.37,2014-03-06 18:41:00,
2014-03-06 12:46:00,54.5,51.6,29.90,ENE,68,8.1,13.7,90,0.00,CLR,,0.35,WeatherDisplay:10.37,2014-03-06 18:46:00,
2014-03-06 12:51:00,54.5,51.6,29.90,ENE,68,6.9,13.1,90,0.00,CLR,,0.35,WeatherDisplay:10.37,2014-03-06 18:51:00,
2014-03-06 12:56:00,54.5,51.6,29.89,ENE,68,12.7,21.7,90,0.00,CLR,,0.35,WeatherDisplay:10.37,2014-03-06 18:56:00,
2014-03-06 13:01:00,54.5,51.6,29.89,ENE,68,11.5,20.8,90,0.00,CLR,,0.35,WeatherDisplay:10.37,2014-03-06 19:01:00,
2014-03-06 13:06:00,54.5,51.6,29.89,ENE,68,9.3,18.4,90,0.00,CLR,,0.35,WeatherDisplay:10.37,2014-03-06 19:06:00,
2014-03-06 13:11:00,54.5,51.9,29.89,ENE,68,5.8,5.8,91,0.00,CLR,,0.35,WeatherDisplay:10.37,2014-03-06 19:11:00,
2014-03-06 13:16:00,54.5,51.9,29.89,ENE,68,10.4,21.0,91,0.00,CLR,,0.35,WeatherDisplay:10.37,2014-03-06 19:16:00,
2014-03-06 13:21:00,54.7,52.1,29.89,ENE,68,9.2,17.9,91,0.00,CLR,,0.35,WeatherDisplay:10.37,2014-03-06 19:21:00,
2014-03-06 13:26:00,54.7,52.1,29.88,ENE,68,13.3,15.3,91,0.00,CLR,,0.35,WeatherDisplay:10.37,2014-03-06 19:26:00,
2014-03-06 13:31:00,54.7,52.1,29.88,ENE,68,8.1,8.1,91,0.00,CLR,,0.35,WeatherDisplay:10.37,2014-03-06 19:31:00,
2014-03-06 13:36:00,54.7,52.1,29.88,ENE,68,4.9,9.6,91,0.00,CLR,,0.35,WeatherDisplay:10.37,2014-03-06 19:36:00,
2014-03-06 13:41:00,54.7,52.1,29.88,ENE,68,8.1,15.8,91,0.00,CLR,,0.35,WeatherDisplay:10.37,2014-03-06 19:41:00,
2014-03-06 13:46:00,54.7,52.1,29.88,ENE,68,4.6,4.6,91,0.00,CLR,,0.35,WeatherDisplay:10.37,2014-03-06 19:46:00,
2014-03-06 13:51:00,54.7,52.1,29.88,ENE,68,3.5,7.0,91,0.00,CLR,,0.35,WeatherDisplay:10.37,2014-03-06 19:51:00,
2014-03-06 13:56:00,54.7,52.1,29.88,ENE,68,5.8,10.5,91,0.00,CLR,,0.35,WeatherDisplay:10.37,2014-03-06 19:56:00,
2014-03-06 14:01:00,54.7,52.1,29.88,ENE,68,4.6,4.6,91,0.00,CLR,,0.35,WeatherDisplay:10.37,2014-03-06 20:01:00,
2014-03-06 14:06:00,54.7,52.1,29.88,ENE,68,8.1,13.9,91,0.02,RA,,0.37,WeatherDisplay:10.37,2014-03-06 20:06:00,
2014-03-06 14:11:00,54.5,51.9,29.88,ENE,68,11.5,23.7,91,0.02,RA,,0.37,WeatherDisplay:10.37,2014-03-06 20:11:00,
2014-03-06 14:16:00,54.3,51.7,29.87,ENE,68,4.6,7.0,91,0.02,CLR,,0.37,WeatherDisplay:10.37,2014-03-06 20:16:00,
2014-03-06 14:21:00,54.5,51.9,29.87,ENE,68,1.3,2.6,91,0.02,CLR,,0.37,WeatherDisplay:10.37,2014-03-06 20:21:00,
2014-03-06 14:26:00,54.3,51.7,29.87,ENE,68,6.9,13.8,91,0.02,CLR,,0.37,WeatherDisplay:10.37,2014-03-06 20:26:00,
2014-03-06 14:31:00,54.3,51.7,29.87,ENE,68,11.5,14.0,91,0.02,CLR,,0.37,WeatherDisplay:10.37,2014-03-06 20:31:00,
2014-03-06 14:36:00,54.3,51.7,29.87,ENE,68,6.9,14.0,91,0.04,RA,,0.39,WeatherDisplay:10.37,2014-03-06 20:36:00,
2014-03-06 14:41:00,54.1,51.6,29.87,ENE,68,3.5,7.9,91,0.04,RA,,0.39,WeatherDisplay:10.37,2014-03-06 20:41:00,
2014-03-06 14:46:00,54.0,51.4,29.87,ENE,68,10.4,21.0,91,0.04,,,0.39,WeatherDisplay:10.37,2014-03-06 20:46:00,
2014-03-06 14:51:00,54.0,51.4,29.87,ENE,68,3.5,7.0,91,0.04,CLR,,0.39,WeatherDisplay:10.37,2014-03-06 20:51:00,
2014-03-06 14:56:00,54.0,51.4,29.87,NE,45,3.5,7.0,91,0.04,CLR,,0.39,WeatherDisplay:10.37,2014-03-06 20:56:00,
2014-03-06 15:01:00,54.1,51.6,29.87,NE,45,0.0,0.0,91,0.04,CLR,,0.39,WeatherDisplay:10.37,2014-03-06 21:01:00,
2014-03-06 15:06:00,54.1,51.6,29.87,NE,45,0.0,0.0,91,0.02,CLR,,0.39,WeatherDisplay:10.37,2014-03-06 21:06:00,
2014-03-06 15:11:00,54.1,51.6,29.87,NE,45,0.0,0.0,91,0.04,RA,,0.41,WeatherDisplay:10.37,2014-03-06 21:11:00,
2014-03-06 15:16:00,54.1,51.9,29.87,NE,45,0.0,0.0,92,0.04,RA,,0.41,WeatherDisplay:10.37,2014-03-06 21:16:00,
2014-03-06 15:21:00,54.1,51.6,29.87,ENE,68,0.0,0.0,91,0.04,CLR,,0.41,WeatherDisplay:10.37,2014-03-06 21:21:00,
2014-03-06 15:26:00,54.1,51.9,29.87,NE,45,0.0,0.0,92,0.04,CLR,,0.41,WeatherDisplay:10.37,2014-03-06 21:26:00,
2014-03-06 15:31:00,54.3,52.0,29.87,ENE,68,2.3,3.9,92,0.04,CLR,,0.41,WeatherDisplay:10.37,2014-03-06 21:31:00,
2014-03-06 15:36:00,54.3,52.0,29.87,ENE,68,0.0,0.0,92,0.02,CLR,,0.41,WeatherDisplay:10.37,2014-03-06 21:36:00,
2014-03-06 15:41:00,54.5,52.2,29.86,North,0,0.0,0.0,92,0.02,CLR,,0.41,WeatherDisplay:10.37,2014-03-06 21:41:00,
2014-03-06 15:46:00,54.5,52.2,29.86,North,0,0.0,0.0,92,0.02,CLR,,0.41,WeatherDisplay:10.37,2014-03-06 21:46:00,
2014-03-06 15:51:00,54.7,52.4,29.86,ENE,68,0.0,0.0,92,0.04,RA,,0.43,WeatherDisplay:10.37,2014-03-06 21:51:00,
2014-03-06 15:56:00,54.5,52.2,29.86,ENE,68,0.0,0.0,92,0.04,RA,,0.43,WeatherDisplay:10.37,2014-03-06 21:56:00,
2014-03-06 16:01:00,54.5,52.2,29.86,NE,45,0.0,0.0,92,0.04,,,0.43,WeatherDisplay:10.37,2014-03-06 22:01:00,
2014-03-06 16:06:00,54.3,51.7,29.86,NNW,338,1.2,1.7,91,0.04,CLR,,0.43,WeatherDisplay:10.37,2014-03-06 22:06:00,
2014-03-06 16:11:00,54.3,51.7,29.86,NE,45,0.0,0.0,91,0.02,CLR,,0.43,WeatherDisplay:10.37,2014-03-06 22:11:00,
2014-03-06 16:16:00,54.3,51.7,29.86,NE,45,0.0,0.0,91,0.02,CLR,,0.43,WeatherDisplay:10.37,2014-03-06 22:16:00,
2014-03-06 16:21:00,54.3,52.0,29.86,ENE,68,1.8,0.0,92,0.02,CLR,,0.43,WeatherDisplay:10.37,2014-03-06 22:21:00,
2014-03-06 16:26:00,54.3,52.0,29.86,NE,45,0.0,0.0,92,0.02,CLR,,0.43,WeatherDisplay:10.37,2014-03-06 22:26:00,
2014-03-06 16:31:00,54.3,52.0,29.86,NE,45,0.0,0.0,92,0.02,CLR,,0.43,WeatherDisplay:10.37,2014-03-06 22:31:00,
2014-03-06 16:36:00,54.3,52.0,29.86,WSW,248,0.0,0.0,92,0.04,RA,,0.45,WeatherDisplay:10.37,2014-03-06 22:36:00,
2014-03-06 16:41:00,54.3,52.0,29.86,WNW,292,9.2,9.2,92,0.04,RA,,0.45,WeatherDisplay:10.37,2014-03-06 22:41:00,
2014-03-06 16:46:00,54.1,51.9,29.86,WNW,292,0.0,0.0,92,0.04,CLR,,0.45,WeatherDisplay:10.37,2014-03-06 22:46:00,
2014-03-06 16:51:00,54.0,51.7,29.86,WNW,292,0.0,0.0,92,0.04,RA,,0.47,WeatherDisplay:10.37,2014-03-06 22:51:00,
2014-03-06 16:56:00,54.0,51.7,29.86,NNW,338,0.0,0.0,92,0.04,RA,,0.47,WeatherDisplay:10.37,2014-03-06 22:56:00,
2014-03-06 17:01:00,53.8,51.5,29.86,West,270,0.0,0.0,92,0.04,,,0.47,WeatherDisplay:10.37,2014-03-06 23:01:00,
2014-03-06 17:06:00,53.8,51.5,29.86,NE,45,0.0,0.0,92,0.04,CLR,,0.49,WeatherDisplay:10.37,2014-03-06 23:06:00,
2014-03-06 17:11:00,53.4,51.2,29.86,North,0,0.0,0.0,92,0.06,RA,,0.49,WeatherDisplay:10.37,2014-03-06 23:11:00,
2014-03-06 17:16:00,53.4,51.2,29.86,NW,315,0.0,0.0,92,0.06,RA,,0.49,WeatherDisplay:10.37,2014-03-06 23:16:00,
2014-03-06 17:21:00,53.4,51.2,29.86,NW,315,0.0,0.0,92,0.06,CLR,,0.49,WeatherDisplay:10.37,2014-03-06 23:21:00,
2014-03-06 17:26:00,53.4,51.2,29.86,North,0,0.0,0.0,92,0.08,RA,,0.51,WeatherDisplay:10.37,2014-03-06 23:26:00,
2014-03-06 17:31:00,53.2,51.0,29.86,North,0,0.0,0.0,92,0.08,RA,,0.51,WeatherDisplay:10.37,2014-03-06 23:31:00,
2014-03-06 17:36:00,53.2,51.0,29.86,NNW,338,0.0,0.0,92,0.08,RA,,0.53,WeatherDisplay:10.37,2014-03-06 23:36:00,
2014-03-06 17:41:00,53.2,51.0,29.87,NW,315,0.0,0.0,92,0.10,RA,,0.55,WeatherDisplay:10.37,2014-03-06 23:41:00,
2014-03-06 17:46:00,52.9,50.6,29.88,NNW,338,0.0,0.0,92,0.12,RA,,0.57,WeatherDisplay:10.37,2014-03-06 23:46:00,
2014-03-06 17:51:00,52.9,50.6,29.88,NNE,22,0.0,0.0,92,0.12,RA,,0.59,WeatherDisplay:10.37,2014-03-06 23:51:00,
2014-03-06 17:56:00,52.9,50.6,29.88,NW,315,0.0,0.0,92,0.12,RA,,0.59,WeatherDisplay:10.37,2014-03-06 23:56:00,
2014-03-06 18:01:00,52.9,50.6,29.89,NW,315,0.0,0.0,92,0.16,RA,,0.63,WeatherDisplay:10.37,2014-03-07 00:01:00,
2014-03-06 18:06:00,52.9,50.6,29.89,ENE,68,0.0,0.0,92,0.16,RA,,0.63,WeatherDisplay:10.37,2014-03-07 00:06:00,
2014-03-06 18:11:00,52.5,50.0,29.89,ENE,68,0.0,0.0,91,0.18,RA,,0.67,WeatherDisplay:10.37,2014-03-07 00:11:00,
2014-03-06 18:16:00,52.5,50.0,29.89,ENE,68,6.2,6.2,91,0.20,RA,,0.71,WeatherDisplay:10.37,2014-03-07 00:16:00,
2014-03-06 18:21:00,52.0,49.4,29.88,ENE,68,4.6,9.1,91,0.22,RA,,0.71,WeatherDisplay:10.37,2014-03-07 00:21:00,
2014-03-06 18:26:00,51.8,49.3,29.88,ENE,68,18.4,18.4,91,0.22,RA,,0.73,WeatherDisplay:10.37,2014-03-07 00:26:00,
2014-03-06 18:31:00,51.6,49.4,29.87,ENE,68,9.2,9.2,92,0.22,RA,,0.73,WeatherDisplay:10.37,2014-03-07 00:31:00,
2014-03-06 18:36:00,51.1,48.8,29.89,ENE,68,0.0,0.0,92,0.20,,,0.73,WeatherDisplay:10.37,2014-03-07 00:36:00,
2014-03-06 18:41:00,50.9,48.7,29.89,ENE,68,6.9,8.8,92,0.18,CLR,,0.73,WeatherDisplay:10.37,2014-03-07 00:41:00,
2014-03-06 18:46:00,50.9,48.7,29.90,ENE,68,0.0,0.0,92,0.16,CLR,,0.73,WeatherDisplay:10.37,2014-03-07 00:46:00,
2014-03-06 18:51:00,50.7,48.5,29.90,East,90,2.3,3.3,92,0.14,CLR,,0.73,WeatherDisplay:10.37,2014-03-07 00:51:00,
2014-03-06 18:56:00,50.5,48.3,29.90,ENE,68,5.8,5.8,92,0.14,CLR,,0.73,WeatherDisplay:10.37,2014-03-07 00:56:00,
2014-03-06 19:01:00,50.4,48.1,29.90,ENE,68,0.0,0.0,92,0.10,CLR,,0.73,WeatherDisplay:10.37,2014-03-07 01:01:00,
2014-03-06 19:06:00,50.2,47.9,29.90,ENE,68,0.0,0.0,92,0.10,CLR,,0.73,WeatherDisplay:10.37,2014-03-07 01:06:00,
2014-03-06 19:11:00,50.2,47.9,29.91,ENE,68,0.0,0.0,92,0.06,CLR,,0.73,WeatherDisplay:10.37,2014-03-07 01:11:00,
2014-03-06 19:16:00,50.2,47.9,29.91,ENE,68,0.0,0.0,92,0.04,CLR,,0.73,WeatherDisplay:10.37,2014-03-07 01:16:00,
2014-03-06 19:21:00,50.2,47.9,29.91,ENE,68,0.0,0.0,92,0.02,CLR,,0.73,WeatherDisplay:10.37,2014-03-07 01:21:00,
2014-03-06 19:26:00,50.2,47.9,29.92,ENE,68,0.0,0.0,92,0.00,CLR,,0.73,WeatherDisplay:10.37,2014-03-07 01:26:00,
2014-03-06 19:31:00,50.2,47.9,29.92,ENE,68,0.0,0.0,92,0.00,CLR,,0.73,WeatherDisplay:10.37,2014-03-07 01:31:00,
2014-03-06 19:36:00,50.2,47.9,29.93,ENE,68,0.0,0.0,92,0.00,CLR,,0.73,WeatherDisplay:10.37,2014-03-07 01:36:00,
2014-03-06 19:41:00,50.2,47.9,29.93,ENE,68,0.0,0.0,92,0.00,CLR,,0.73,WeatherDisplay:10.37,2014-03-07 01:41:00,
2014-03-06 19:46:00,50.2,47.9,29.93,ENE,68,0.0,0.0,92,0.00,CLR,,0.73,WeatherDisplay:10.37,2014-03-07 01:46:00,
2014-03-06 19:51:00,50.0,47.8,29.92,ENE,68,0.0,0.0,92,0.00,CLR,,0.73,WeatherDisplay:10.37,2014-03-07 01:51:00,
2014-03-06 19:56:00,50.0,47.8,29.92,ENE,68,1.2,1.2,92,0.02,RA,,0.75,WeatherDisplay:10.37,2014-03-07 01:56:00,
2014-03-06 20:01:00,49.8,47.6,29.92,ENE,68,4.6,5.3,92,0.02,RA,,0.75,WeatherDisplay:10.37,2014-03-07 02:01:00,
2014-03-06 20:06:00,49.8,47.6,29.91,East,90,8.0,10.7,92,0.02,,,0.75,WeatherDisplay:10.37,2014-03-07 02:06:00,
2014-03-06 20:11:00,49.6,47.4,29.91,ENE,68,5.8,11.4,92,0.02,CLR,,0.75,WeatherDisplay:10.37,2014-03-07 02:11:00,
2014-03-06 20:16:00,49.6,47.4,29.91,ENE,68,3.5,5.3,92,0.02,CLR,,0.75,WeatherDisplay:10.37,2014-03-07 02:16:00,
2014-03-06 20:21:00,49.6,47.4,29.91,East,90,13.8,21.6,92,0.02,CLR,,0.75,WeatherDisplay:10.37,2014-03-07 02:21:00,
2014-03-06 20:26:00,49.1,46.9,29.91,ENE,68,24.3,34.9,92,0.02,CLR,,0.75,WeatherDisplay:10.37,2014-03-07 02:26:00,
2014-03-06 20:31:00,48.6,46.3,29.91,ENE,68,5.8,11.9,92,0.02,CLR,,0.75,WeatherDisplay:10.37,2014-03-07 02:31:00,
2014-03-06 20:36:00,48.0,45.5,29.91,ENE,68,8.1,15.2,91,0.02,CLR,,0.75,WeatherDisplay:10.37,2014-03-07 02:36:00,
2014-03-06 20:42:00,47.5,45.0,29.92,ENE,68,12.7,24.9,91,0.02,CLR,,0.75,WeatherDisplay:10.37,2014-03-07 02:42:00,
2014-03-06 20:47:00,47.1,44.6,29.92,ENE,68,0.0,0.0,91,0.02,CLR,,0.75,WeatherDisplay:10.37,2014-03-07 02:47:00,
2014-03-06 20:52:00,46.9,44.4,29.92,ENE,68,0.0,0.0,91,0.02,CLR,,0.75,WeatherDisplay:10.37,2014-03-07 02:52:00,
2014-03-06 20:57:00,46.9,44.4,29.93,ENE,68,12.7,0.0,91,0.00,CLR,,0.75,WeatherDisplay:10.37,2014-03-07 02:57:00,
2014-03-06 21:02:00,46.9,44.4,29.93,ENE,68,15.0,0.0,91,0.00,CLR,,0.75,WeatherDisplay:10.37,2014-03-07 03:02:00,
2014-03-06 21:07:00,46.8,44.3,29.92,ENE,68,13.8,21.9,91,0.00,CLR,,0.75,WeatherDisplay:10.37,2014-03-07 03:07:00,
2014-03-06 21:12:00,46.8,44.6,29.92,ENE,68,4.6,8.8,92,0.00,CLR,,0.75,WeatherDisplay:10.37,2014-03-07 03:12:00,
2014-03-06 21:17:00,46.8,44.6,29.92,ENE,68,0.0,0.0,92,0.00,CLR,,0.75,WeatherDisplay:10.37,2014-03-07 03:17:00,
2014-03-06 21:22:00,46.6,44.4,29.93,NE,45,0.0,0.0,92,0.00,CLR,,0.75,WeatherDisplay:10.37,2014-03-07 03:22:00,
2014-03-06 21:27:00,46.6,44.4,29.94,ENE,68,0.0,0.0,92,0.00,CLR,,0.75,WeatherDisplay:10.37,2014-03-07 03:27:00,
2014-03-06 21:32:00,46.6,44.4,29.94,ENE,68,5.8,11.4,92,0.00,CLR,,0.75,WeatherDisplay:10.37,2014-03-07 03:32:00,
2014-03-06 21:37:00,46.6,44.4,29.94,ENE,68,0.0,0.0,92,0.00,CLR,,0.75,WeatherDisplay:10.37,2014-03-07 03:37:00,
2014-03-06 21:42:00,46.6,44.4,29.93,ENE,68,0.0,0.0,92,0.00,CLR,,0.75,WeatherDisplay:10.37,2014-03-07 03:42:00,
2014-03-06 21:47:00,46.6,44.4,29.93,ENE,68,0.0,0.0,92,0.00,CLR,,0.75,WeatherDisplay:10.37,2014-03-07 03:47:00,
2014-03-06 21:52:00,46.6,44.4,29.94,ENE,68,12.8,12.8,92,0.00,CLR,,0.75,WeatherDisplay:10.37,2014-03-07 03:52:00,
2014-03-06 21:57:00,46.2,44.0,29.94,NE,45,0.0,0.6,92,0.00,CLR,,0.75,WeatherDisplay:10.37,2014-03-07 03:57:00,
2014-03-06 22:02:00,46.2,43.7,29.94,ENE,68,0.0,0.0,91,0.00,CLR,,0.75,WeatherDisplay:10.37,2014-03-07 04:02:00,
2014-03-06 22:07:00,46.2,43.7,29.93,ENE,68,0.0,0.0,91,0.00,CLR,,0.75,WeatherDisplay:10.37,2014-03-07 04:07:00,
2014-03-06 22:12:00,46.0,43.6,29.93,North,0,0.0,0.0,91,0.00,CLR,,0.75,WeatherDisplay:10.37,2014-03-07 04:12:00,
2014-03-06 22:17:00,46.0,43.6,29.94,ENE,68,0.0,0.0,91,0.00,CLR,,0.75,WeatherDisplay:10.37,2014-03-07 04:17:00,
2014-03-06 22:22:00,46.0,43.6,29.94,NNE,22,0.0,0.0,91,0.00,CLR,,0.75,WeatherDisplay:10.37,2014-03-07 04:22:00,
2014-03-06 22:27:00,45.7,43.2,29.94,ENE,68,5.8,0.0,91,0.00,CLR,,0.75,WeatherDisplay:10.37,2014-03-07 04:27:00,
2014-03-06 22:32:00,45.7,43.2,29.94,NE,45,0.0,0.0,91,0.00,CLR,,0.75,WeatherDisplay:10.37,2014-03-07 04:32:00,
2014-03-06 22:37:00,45.7,43.2,29.94,ENE,68,0.0,0.0,91,0.00,CLR,,0.75,WeatherDisplay:10.37,2014-03-07 04:37:00,
2014-03-06 22:42:00,45.7,43.2,29.95,NE,45,0.0,0.0,91,0.00,CLR,,0.75,WeatherDisplay:10.37,2014-03-07 04:42:00,
2014-03-06 22:47:00,45.7,43.2,29.95,ENE,68,0.0,0.0,91,0.00,CLR,,0.75,WeatherDisplay:10.37,2014-03-07 04:47:00,
2014-03-06 22:52:00,45.7,43.2,29.95,ENE,68,0.0,0.0,91,0.00,CLR,,0.75,WeatherDisplay:10.37,2014-03-07 04:52:00,
2014-03-06 22:57:00,45.7,43.2,29.95,NW,315,0.0,0.0,91,0.00,CLR,,0.75,WeatherDisplay:10.37,2014-03-07 04:57:00,
2014-03-06 23:01:00,45.7,43.2,29.95,ENE,68,0.0,0.0,91,0.00,CLR,,0.75,WeatherDisplay:10.37,2014-03-07 05:01:00,
2014-03-06 23:02:00,45.7,43.2,29.95,ENE,68,8.8,0.0,91,0.00,CLR,,0.75,WeatherDisplay:10.37,2014-03-07 05:02:00,
2014-03-06 23:03:00,45.7,43.2,29.95,ENE,68,9.2,16.6,91,0.00,CLR,,0.75,WeatherDisplay:10.37,2014-03-07 05:03:00,
2014-03-06 23:06:00,45.7,43.2,29.95,ENE,68,9.2,0.0,91,0.00,CLR,,0.75,WeatherDisplay:10.37,2014-03-07 05:06:00,
2014-03-06 23:11:00,45.7,43.2,29.95,NNE,22,11.5,23.7,91,0.00,CLR,,0.75,WeatherDisplay:10.37,2014-03-07 05:11:00,
2014-03-06 23:16:00,45.7,43.2,29.95,NNW,338,15.0,15.0,91,0.00,,,0.75,WeatherDisplay:10.37,2014-03-07 05:16:00,
2014-03-06 23:21:00,45.7,43.2,29.95,NNW,338,6.9,0.0,91,0.00,CLR,,0.75,WeatherDisplay:10.37,2014-03-07 05:21:00,
2014-03-06 23:26:00,45.7,43.2,29.95,WNW,292,0.0,0.0,91,0.00,CLR,,0.75,WeatherDisplay:10.37,2014-03-07 05:26:00,
2014-03-06 23:31:00,45.7,43.2,29.95,NNW,338,0.0,0.0,91,0.00,CLR,,0.75,WeatherDisplay:10.37,2014-03-07 05:31:00,
2014-03-06 23:36:00,45.7,43.2,29.95,North,0,5.8,0.0,91,0.00,CLR,,0.75,WeatherDisplay:10.37,2014-03-07 05:36:00,
2014-03-06 23:41:00,45.5,43.0,29.95,WNW,292,13.8,26.3,91,0.00,CLR,,0.75,WeatherDisplay:10.37,2014-03-07 05:41:00,
2014-03-06 23:46:00,45.5,43.0,29.95,NNW,338,5.8,11.4,91,0.00,CLR,,0.75,WeatherDisplay:10.37,2014-03-07 05:46:00,
2014-03-06 23:51:00,45.3,42.8,29.95,NNW,338,0.0,0.0,91,0.00,CLR,,0.75,WeatherDisplay:10.37,2014-03-07 05:51:00,
2014-03-06 23:56:00,45.3,42.8,29.95,ENE,68,4.9,0.0,91,0.00,CLR,,0.75,WeatherDisplay:10.37,2014-03-07 05:56:00,